Theta_e
329 327 327 330 332 336 340 333 334 342 342 340 336 333 330 328 329 327 329 335 335 335 336 338 336 338 338 331 332 332 333 332 333 333 338 340 333 323 324 328 333 338 337
326 328 330 329 332 335 341 336 335 341 338 335 334 334 334 335 338 328 325 327 329 330 332 333 334 334 331 331 331 331 334 335 335 335 335 339 339 339 334 328 322 324 325
328 329 330 329 332 340 334 333 334 337 334 334 334 332 334 334 335 337 327 325 327 326 328 332 335 339 333 334 337 335 336 339 341 339 333 333 340 336 338 339 340 338 338
328 329 330 330 332 345 333 333 332 332 333 333 334 332 330 330 330 333 332 325 337 342 343 334 327 327 331 332 336 334 335 336 337 335 334 333 334 340 341 340 336 334 336
328 328 329 329 329 330 332 333 331 332 332 332 333 331 329 328 329 330 332 333 329 331 328 324 322 324 326 328 338 339 332 330 326 326 328 331 332 335 338 334 336 336 335
328 328 328 328 328 328 330 331 330 330 331 332 332 330 329 330 327 326 328 330 334 338 338 325 322 324 333 338 340 340 336 336 324 323 325 326 331 334 333 335 334 333 334
328 328 327 327 329 329 328 328 329 329 329 330 330 328 328 326 327 326 326 328 330 330 339 336 327 328 337 339 339 338 334 339 330 324 322 326 333 335 330 334 333 337 334
328 328 327 327 329 332 331 328 328 328 328 328 327 327 326 325 326 326 326 326 327 331 330 327 325 329 333 339 339 333 337 339 335 335 333 328 324 331 330 325 330 334 337
328 328 327 327 327 328 330 335 333 332 331 331 330 330 329 328 327 327 327 327 327 327 331 333 332 331 326 329 332 335 336 337 338 337 336 330 324 323 326 331 335 333 337
326 327 328 328 328 328 327 331 336 337 337 337 337 336 336 334 331 329 329 329 330 330 329 329 332 336 335 327 328 332 339 340 338 339 338 329 327 323 322 325 328 329 332
326 325 326 327 327 327 327 331 336 337 338 338 338 338 338 339 342 334 331 334 333 338 335 334 330 331 335 333 332 332 333 335 340 339 339 339 339 337 325 322 325 326 326
330 328 325 325 325 325 329 334 336 337 337 337 337 338 338 338 338 336 336 335 334 339 337 339 339 331 331 334 333 333 334 334 334 339 341 339 339 337 336 329 324 323 324
335 333 331 327 326 326 331 334 335 335 334 333 335 336 337 336 335 336 335 339 339 337 336 336 339 339 337 336 335 335 335 335 335 335 335 338 339 338 336 338 333 329 324
341 342 339 335 332 332 334 334 331 329 328 333 328 328 331 332 336 341 341 337 338 339 335 334 339 340 339 337 336 337 337 337 336 337 338 336 335 339 337 338 340 339 331
346 346 345 342 338 336 336 333 331 328 341 338 337 329 328 339 343 344 343 342 342 342 337 337 335 335 337 334 338 337 334 337 336 338 338 338 337 335 338 339 339 339 337
347 346 344 344 341 339 335 334 333 333 345 344 342 341 345 345 346 346 346 344 343 343 342 343 343 341 339 337 340 339 338 340 342 342 341 336 337 338 338 339 341 339 339
348 348 347 347 343 340 337 337 336 338 345 346 346 346 345 346 346 346 347 346 344 345 343 342 343 343 342 339 343 343 343 343 342 342 340 339 342 342 341 340 341 341 341
349 348 345 340 346 344 344 342 342 344 346 346 346 347 347 346 346 345 346 346 345 345 344 343 343 343 343 343 342 343 344 342 342 342 342 342 342 342 342 342 342 341 341
350 350 348 342 345 347 346 346 345 345 347 347 348 347 347 346 347 346 346 346 346 346 345 344 342 343 342 344 345 343 342 343 342 342 341 341 341 340 342 342 343 342 340
348 349 347 344 345 347 347 346 346 346 347 347 349 348 347 347 347 348 348 347 347 347 346 344 344 344 345 344 344 345 344 343 343 341 341 341 340 341 340 342 344 344 342
343 347 343 341 343 348 348 348 347 347 347 348 348 348 347 348 348 349 348 348 348 348 347 343 344 345 346 346 345 345 345 343 343 341 340 340 340 341 342 341 342 343 343
341 345 342 343 347 347 348 348 347 347 348 347 348 349 348 347 347 347 347 349 349 349 348 347 345 345 347 346 346 346 345 345 345 343 341 341 341 341 341 341 343 344 343
344 344 347 348 348 348 348 348 347 347 346 340 345 348 350 350 349 348 346 347 349 349 348 348 347 346 344 345 346 346 346 345 344 343 343 343 343 343 343 342 344 343 343
345 345 345 344 348 343 342 346 348 339 337 341 346 349 348 349 350 350 351 349 348 349 349 348 347 347 346 345 346 346 345 345 346 345 344 342 343 343 343 344 344 343 343
347 346 346 345 342 344 344 348 349 346 347 347 348 348 344 344 349 351 350 351 349 348 347 348 347 348 347 346 345 345 345 345 345 345 345 345 344 344 343 344 344 345 344
346 347 347 346 344 343 347 347 350 349 348 341 338 340 343 344 344 344 345 350 350 350 348 348 347 347 348 346 346 346 346 346 346 345 345 345 347 345 345 344 346 345 343
Wind_Speed
26 24 22 20 17 14 15 16 19 20 21 20 20 18 16 16 15 14 14 15 15 15 14 14 14 16 15 14 14 14 13 12 12 13 14 13 13 12 11 11 13 14 14
31 27 24 22 19 16 18 17 20 22 22 22 21 17 16 15 15 15 14 14 14 14 14 14 15 15 16 16 16 15 14 14 13 12 12 13 12 12 13 14 13 13 12
31 28 26 24 20 17 19 18 21 22 23 22 19 16 16 15 14 13 13 14 14 14 14 14 15 16 15 17 15 16 15 13 13 13 12 11 11 11 12 13 13 14 13
30 29 27 24 22 18 20 20 21 22 22 21 18 16 15 14 13 13 12 13 13 14 13 12 13 13 15 16 16 14 14 13 11 11 10 10 10 11 11 12 11 12 12
30 28 27 24 22 20 19 19 21 21 21 19 16 15 14 12 11 11 11 12 12 12 11 11 11 12 13 16 15 13 13 13 12 12 11 9 9 9 9 10 10 10 10
30 28 27 24 21 20 20 19 20 20 20 18 15 13 12 12 12 12 11 10 11 11 9 8 10 11 14 14 11 10 8 9 11 11 11 9 8 8 8 8 8 9 9
30 29 26 23 20 19 18 18 18 19 18 16 13 12 12 12 12 11 10 9 9 10 11 10 10 11 12 11 9 7 5 10 9 10 10 8 8 7 6 6 8 8 8
28 28 26 23 20 17 16 16 16 16 15 14 13 12 11 11 11 9 8 7 7 8 9 9 10 11 12 11 8 6 9 8 7 7 8 7 6 6 5 5 7 8 8
27 26 25 23 20 16 15 15 15 15 14 13 12 11 10 10 10 9 7 6 6 9 10 10 10 10 11 12 10 8 7 5 6 7 6 6 4 4 5 5 5 7 7
27 26 25 24 21 19 17 17 16 15 14 12 11 10 10 10 9 9 9 8 6 9 12 13 12 13 12 12 11 10 9 9 8 8 7 6 5 4 4 6 6 6 8
26 25 26 25 23 20 18 18 17 16 15 13 13 12 11 10 10 9 7 10 7 9 11 13 14 14 14 15 14 12 12 12 11 10 10 9 7 6 5 6 7 7 7
26 25 25 25 25 22 20 18 17 16 16 15 14 13 12 11 10 10 10 12 14 13 13 13 14 15 17 16 18 17 17 16 16 15 13 11 10 10 8 7 7 8 8
24 24 25 27 26 24 22 19 18 16 15 15 15 14 13 10 12 13 12 9 7 10 9 14 14 15 16 16 17 18 19 18 19 19 19 17 14 11 14 12 8 8 9
24 22 24 25 24 24 22 19 17 15 15 15 15 15 15 13 12 13 11 14 15 11 10 11 13 15 16 16 15 17 19 20 19 19 20 21 20 18 16 16 15 13 12
23 22 20 21 24 24 23 20 18 16 14 11 13 14 13 11 11 8 11 9 10 11 9 10 14 14 15 15 15 16 16 16 16 16 18 20 21 21 20 18 20 20 18
25 26 26 23 23 23 24 20 18 18 13 11 10 10 11 11 10 11 9 11 12 11 10 11 9 11 13 15 14 15 14 16 17 18 19 18 18 18 21 22 19 22 22
29 21 18 20 23 23 23 22 18 20 16 15 13 12 11 11 12 11 10 11 11 10 12 12 13 12 12 17 17 16 18 17 17 15 14 15 16 16 15 16 19 20 22
32 25 10 18 22 23 22 23 21 20 20 18 15 15 14 11 11 13 13 10 9 10 11 12 12 13 14 16 16 17 18 19 20 19 17 17 18 18 18 18 14 16 20
28 26 23 18 13 18 22 22 22 21 22 23 18 18 15 12 13 13 15 12 13 10 13 12 11 13 12 12 16 17 18 21 21 22 22 20 20 19 18 19 18 16 15
23 25 25 22 26 17 22 26 24 24 23 23 15 20 20 17 15 16 15 14 12 13 14 16 16 12 12 14 14 17 18 20 23 24 24 22 21 21 19 18 16 17 17
23 25 20 12 20 24 21 26 25 25 25 23 18 16 19 19 19 19 18 16 15 17 14 13 14 17 17 12 14 16 17 17 21 25 25 26 24 22 22 21 21 20 20
11 20 28 27 18 23 18 25 23 25 23 24 24 23 21 21 21 23 23 22 19 18 18 16 17 17 17 13 15 14 12 14 16 22 26 27 27 25 24 24 24 23 21
15 13 16 15 17 13 17 20 25 26 16 15 20 16 23 22 26 26 26 25 24 23 21 19 18 19 19 16 15 13 6 5 6 8 14 22 28 29 29 27 24 24 24
21 12 7 10 16 10 18 19 13 16 14 11 20 27 26 27 30 31 29 29 29 26 25 22 20 20 21 22 19 20 20 18 9 8 7 5 8 13 21 26 27 26 25
17 18 9 10 14 16 16 12 13 15 11 16 21 28 30 33 33 33 33 31 31 30 28 25 23 23 23 23 23 21 20 19 21 22 24 14 10 9 11 14 19 24 26
12 17 22 16 11 14 7 9 6 6 7 9 10 19 22 22 21 24 32 34 33 29 28 28 25 22 22 22 21 23 23 20 19 18 20 20 17 15 14 12 15 18 21
Wind_Direction
164 159 155 152 148 142 132 135 138 139 138 135 129 122 122 122 117 118 125 129 129 125 126 122 120 122 122 117 113 110 109 110 107 104 103 100 94 108 109 111 112 113 111
154 158 156 155 150 145 138 138 140 144 142 136 132 132 130 126 123 117 122 128 129 131 131 129 124 124 126 124 124 120 113 109 107 112 112 111 101 105 103 103 106 109 110
157 158 157 157 152 146 146 143 144 145 143 142 139 134 130 127 125 121 125 127 127 127 124 125 129 126 130 127 122 120 115 114 116 109 107 117 114 119 113 112 112 113 109
160 159 158 158 154 149 150 148 147 152 151 149 146 141 137 134 129 127 127 128 129 128 133 136 132 132 132 129 131 122 120 120 122 111 107 105 109 111 111 110 112 117 115
162 160 159 159 158 153 151 153 154 152 155 156 154 150 147 143 139 137 137 135 135 139 141 141 135 135 137 136 131 131 124 118 119 112 107 107 113 111 112 111 106 110 111
164 162 160 160 158 153 152 153 158 160 161 164 161 160 156 152 147 144 143 146 146 144 142 143 143 144 142 142 143 140 133 130 117 111 109 106 109 112 112 111 114 110 108
167 166 164 162 161 158 157 157 160 164 168 169 169 170 167 162 157 148 148 153 157 158 159 162 154 154 162 160 160 168 153 149 127 115 113 114 116 110 110 120 127 123 121
173 172 171 168 167 163 166 170 170 169 173 176 180 178 179 176 171 167 161 163 173 175 172 173 174 174 177 177 174 173 159 148 151 143 129 121 121 122 124 133 142 136 132
181 183 183 183 185 185 181 184 184 182 184 187 189 193 193 194 190 187 187 195 199 201 201 197 186 188 195 195 201 201 187 181 172 164 152 150 145 143 149 154 165 149 147
188 194 197 199 203 204 201 196 200 197 197 201 206 209 212 213 213 207 207 214 227 231 215 212 207 205 205 198 199 208 215 217 205 196 186 167 161 173 182 179 185 185 167
194 200 205 208 210 212 211 208 208 212 215 217 222 223 226 228 229 232 238 248 259 256 232 225 219 216 212 211 212 214 225 231 220 221 216 215 222 218 204 200 202 200 197
196 201 205 209 211 211 213 216 219 224 227 231 231 233 237 241 252 245 245 250 260 267 242 235 230 226 221 219 221 228 235 237 237 233 231 232 229 225 218 217 220 222 210
196 203 208 211 211 211 214 220 228 233 236 239 238 236 239 239 244 250 251 248 276 268 259 241 243 235 228 226 230 235 239 239 239 240 240 240 241 243 228 228 223 234 228
201 204 213 215 217 218 222 224 230 231 237 241 238 237 238 234 237 248 257 260 268 272 252 245 242 238 240 234 233 236 237 234 235 241 246 244 242 241 238 240 238 238 238
211 211 215 220 221 222 226 230 232 231 235 245 239 237 237 233 238 255 258 264 252 255 249 256 252 245 247 234 232 234 230 226 229 232 242 244 243 241 241 242 243 241 241
219 220 221 225 226 227 230 232 234 227 229 233 229 231 239 246 245 250 262 247 247 254 258 252 260 245 243 237 234 227 222 226 234 244 247 240 238 243 243 245 251 241 241
221 222 225 239 229 227 232 236 232 226 232 235 237 239 250 254 253 253 256 255 252 242 247 250 254 252 247 237 237 235 241 235 230 232 233 229 234 243 243 246 247 244 244
232 225 232 256 240 229 230 234 232 228 235 242 246 250 255 259 258 251 251 257 257 246 247 252 255 251 248 246 246 245 245 239 235 235 233 232 234 238 248 255 258 248 243
237 232 230 241 241 235 229 229 234 234 241 246 245 251 249 263 257 260 259 257 251 241 255 253 252 254 256 258 255 253 249 243 237 236 237 235 242 246 248 252 256 255 249
253 250 248 248 244 252 239 237 243 247 250 252 261 258 252 259 265 263 266 263 260 258 255 252 251 260 267 262 266 256 253 249 240 237 238 243 246 245 243 250 254 255 253
247 239 234 264 240 243 248 245 252 257 263 274 276 274 263 259 260 262 264 266 262 259 264 257 254 253 261 261 261 260 258 261 250 241 241 243 244 243 248 246 252 253 255
265 232 230 250 265 243 255 249 255 266 272 269 272 279 277 275 267 267 264 264 264 262 262 259 257 260 265 253 257 264 276 273 269 248 245 246 250 253 249 243 250 253 251
247 253 248 250 263 254 276 264 257 269 298 346 281 289 289 282 276 270 263 260 261 261 259 263 264 259 261 258 258 248 262 251 274 261 252 254 255 256 252 249 248 247 249
238 245 259 273 270 267 290 271 275 302 262 295 302 305 295 285 278 270 264 260 260 260 257 259 258 258 258 258 258 251 247 255 269 293 273 254 281 267 256 253 250 248 250
236 235 248 277 263 263 266 249 264 290 310 309 303 296 292 285 274 268 260 257 255 259 257 254 253 253 251 261 260 260 254 253 259 263 278 288 285 277 281 269 255 255 253
233 240 238 247 282 276 236 237 279 310 308 314 332 337 335 319 295 279 260 255 251 255 260 256 247 252 248 253 255 255 257 255 258 262 269 283 294 282 285 274 275 273 267